User: anonymous   Login
Location: Robert Brownlee Observatory
(34.2308°N, 117.2089°W)
Time: 04:58:30
(UTC-08:00)
Language:

Cosmos 1943 - Orbit

View from above orbital plane
View from above orbital plane
View from above satellite
View from above satellite

Ground track
Ground track

The orbit data is extracted from the following two-line orbital elements,

1 19119U 88039A   14353.89732429  .00000414  00000-0  23864-3 0  3189
2 19119 071.0019 213.2484 0011814 351.7995 094.8483 14.14972699373325
Epoch (UTC): 19 December 2014 21:32:08
Eccentricity: 0.0011814
inclination: 71.0019°
perigee height: 834 km
apogee height: 851 km
right ascension of ascending node: 213.2484°
argument of perigee: 351.7995°
revolutions per day: 14.14972699
mean anomaly at epoch: 94.8483°
orbit number at epoch: 37332

The dashed part of the orbit path shows where the satellite is in the earth's shadow,  

DLR